[[{"header":{"parameterUnit":"m.s-1","parameterCategory":1,"la1":30.2991,"la2":30.254,"lo1":-89.0895,"lo2":-89.0444,"dy":0.0017,"dx":0.0017,"nx":28,"ny":28,"refTime":"2025-09-09T09:00:00:Z","depth":0,"parameterNumber":2,"parameterNumberName":"U-component_of_WINDS"},"data":[0,0,0,0,0,0,0,0,0,0,0,0,0,0,0,0,0,0,0,0,0,0,0,0,0,0,0,0,0,0,0,0,0,0,0,0,0,0,0,0,0,0,0,0,0,0,0,0,0,0,0,0,0,0,0,0,0,0,-1.6819,-1.6819,0,-1.6789,-1.6788,-1.6788,-1.6682,-1.668,-1.6678,-1.6675,-1.6647,-1.6649,-1.665,0,0,0,0,0,0,0,0,0,0,0,0,0,-1.679,-1.6791,-1.6819,-1.6819,-1.6818,-1.6789,-1.6788,-1.6788,-1.6683,-1.668,-1.6677,-1.6674,-1.6647,-1.6648,-1.665,0,0,0,0,0,0,0,0,0,0,0,0,0,-1.6786,-1.6791,-1.6819,-1.6762,-1.6757,-1.6789,-1.6788,-1.6788,-1.6684,-1.668,-1.6676,-1.6673,-1.6646,-1.6648,-1.665,-1.6736,0,0,-1.6657,-1.6658,0,0,0,0,0,0,0,0,-1.6786,-1.6787,-1.6771,-1.6766,-1.676,-1.6736,-1.6767,-1.677,-1.6684,-1.6712,-1.6675,-1.6671,-1.668,-1.6679,-1.6681,-1.6734,-1.6733,-1.6657,-1.6659,-1.666,-1.666,0,0,0,0,0,0,0,-1.6786,-1.6787,-1.6807,-1.6771,-1.6764,-1.674,-1.6735,-1.6768,-1.6716,-1.6709,-1.6701,-1.6699,-1.6676,-1.6679,-1.668,-1.6733,-1.6657,-1.6659,-1.6661,-1.6661,-1.6856,-1.686,0,0,0,0,0,0,-1.6794,-1.6788,-1.6808,-1.6806,-1.6764,-1.6743,-1.6738,-1.6747,-1.6715,-1.6707,-1.6702,-1.6694,-1.6677,-1.6677,-1.6678,-1.6777,-1.666,-1.6662,-1.6663,-1.6852,-1.6857,-1.6861,0,0,0,0,0,0,-1.6794,-1.6797,-1.6809,-1.6795,-1.6795,-1.6747,-1.6759,-1.6749,-1.6751,-1.671,-1.6701,-1.6714,-1.6674,-1.6675,-1.6722,-1.6775,-1.6663,-1.6665,-1.6848,-1.6854,-1.6859,-1.6975,0,0,0,0,0,0,-1.6794,-1.6798,-1.6829,-1.6797,-1.6796,-1.6853,-1.6762,-1.6751,-1.6755,-1.6745,-1.6719,-1.6712,-1.6672,-1.672,-1.6725,-1.6776,-1.6666,-1.6843,-1.685,-1.6857,-1.6966,-1.6984,-1.6999,0,0,0,0,0,-1.6793,-1.6863,-1.6831,-1.6834,-1.6834,-1.6856,-1.6856,-1.6808,-1.676,-1.6791,-1.6765,-1.6713,-1.6768,-1.6725,-1.673,-1.6783,-1.6839,-1.6848,-1.6856,-1.6959,-1.6981,-1.6999,0,0,0,0,0,0,-1.6903,-1.6858,-1.6821,-1.6883,-1.6874,-1.6838,-1.6877,-1.6832,-1.6837,-1.6827,-1.6768,-1.6763,-1.6819,-1.6805,-1.6759,-1.6864,-1.6795,-1.6805,-1.6871,-1.6892,-1.6908,-1.6911,-1.6668,0,0,0,0,0,-1.6934,-1.6956,-1.6915,-1.6973,-1.6971,-1.6925,-1.6933,-1.6896,-1.6885,-1.6881,-1.6858,-1.6851,-1.6866,-1.6878,-1.689,-1.6964,-1.6958,-1.7002,-1.7019,-1.7032,-1.7042,-1.7082,-1.7102,-1.6889,-1.6889,-1.6889,0,0,-1.7,-1.6977,-1.6994,-1.6995,-1.6984,-1.7009,-1.6922,-1.6952,-1.697,-1.6886,-1.6929,-1.6912,-1.69,-1.6961,-1.6987,-1.6951,-1.7099,-1.7043,-1.7055,-1.7057,-1.7093,-1.7113,-1.7131,-1.6895,-1.6894,-1.6893,0,0,-1.7131,-1.7116,-1.7163,-1.7154,-1.7138,-1.7107,-1.7119,-1.709,-1.7075,-1.7117,-1.7056,-1.7077,-1.7105,-1.7099,-1.7099,-1.723,-1.7183,-1.7236,-1.7322,-1.7362,-1.7378,-1.7393,-1.7441,-1.7459,-1.7245,-1.7246,-1.7246,0,-1.7214,-1.7248,-1.7193,-1.7227,-1.723,-1.7154,-1.7203,-1.7197,-1.7186,-1.7191,-1.715,-1.7185,-1.7171,-1.7231,-1.7263,-1.7265,-1.7278,-1.7239,-1.738,-1.7394,-1.7407,-1.7452,-1.7471,-1.7252,-1.7251,-1.7251,-1.725,0,-1.7352,-1.7376,-1.7417,-1.7408,-1.7415,-1.7456,-1.7409,-1.7423,-1.7386,-1.736,-1.7405,-1.7386,-1.7394,-1.7405,-1.7369,-1.746,-1.7439,-1.739,-1.732,-1.7435,-1.7477,-1.7493,-1.7262,-1.7259,-1.7257,-1.7256,0,0,-1.7552,-1.7513,-1.7529,-1.7525,-1.7502,-1.7521,-1.7559,-1.7565,-1.758,-1.7575,-1.7607,-1.7633,-1.7588,-1.7589,-1.7552,-1.7586,-1.7693,-1.7534,-1.7532,-1.7566,-1.7795,-1.7832,-1.7853,-1.7661,-1.7664,-1.7667,-1.7796,0,-1.7678,-1.7741,-1.7693,-1.7765,-1.7787,-1.7716,-1.775,-1.7741,-1.7718,-1.7735,-1.7709,-1.7729,-1.7668,-1.7668,-1.7699,-1.7674,-1.7739,-1.7664,-1.7692,-1.7694,-1.7699,-1.7875,-1.7914,-1.8037,-1.7812,-1.7815,-1.7817,0,-1.7834,-1.7836,-1.791,-1.7883,-1.7891,-1.7922,-1.7925,-1.7942,-1.793,-1.7911,-1.7913,-1.7867,-1.7905,-1.7835,-1.7886,-1.7836,-1.7845,-1.7835,-1.7838,-1.784,-1.7763,-1.7883,-1.8075,-1.8094,-1.7841,-1.7839,-1.7838,0,-1.7975,-1.7996,-1.8043,-1.8041,-1.8012,-1.8035,-1.8024,-1.8009,-1.8017,-1.8019,-1.8024,-1.8032,-1.8036,-1.8044,-1.8002,-1.7955,-1.806,-1.7986,-1.8047,-1.8048,-1.8073,-1.8073,-1.8271,-1.8077,-1.8077,-1.8076,-1.8076,0,-1.8121,-1.817,-1.8106,-1.8135,-1.8188,-1.8133,-1.8187,-1.8169,-1.8156,-1.8182,-1.8121,-1.8146,-1.8089,-1.8109,-1.8076,-1.8125,-1.8127,-1.8114,-1.8105,-1.812,-1.8122,-1.8126,-1.8117,-1.8081,-1.808,-1.8079,-1.8078,0,-1.8288,-1.8247,-1.8294,-1.8262,-1.8255,-1.8296,-1.8269,-1.8295,-1.8268,-1.8301,-1.8306,-1.8264,-1.8284,-1.8243,-1.8258,-1.8236,-1.8306,-1.8282,-1.831,-1.8303,-1.8367,-1.8362,-1.8576,-1.8602,-1.839,-1.8392,-1.8394,0,-1.8385,-1.8421,-1.8392,-1.8405,-1.8397,-1.8417,-1.8424,-1.8373,-1.8383,-1.8373,-1.8402,-1.8417,-1.8426,-1.8463,-1.8434,-1.8446,-1.8424,-1.8498,-1.8425,-1.844,-1.8427,-1.8426,-1.843,-1.8514,-1.8516,-1.8518,-1.852,0,-1.8562,-1.854,-1.8553,-1.8559,-1.8569,-1.8571,-1.8569,-1.8583,-1.8528,-1.8543,-1.8563,-1.8571,-1.8586,-1.8603,-1.8608,-1.8597,-1.8551,-1.8543,-1.8558,-1.8575,-1.859,-1.8584,-1.8352,-1.8539,-1.8537,-1.8535,-1.8534,-1.8534,-1.8698,-1.8727,-1.8712,-1.8728,-1.8721,-1.8721,-1.8745,-1.872,-1.8736,-1.8744,-1.8712,-1.874,-1.8729,-1.8731,-1.8726,-1.8747,-1.8714,-1.8736,-1.8741,-1.8748,-1.8759,-1.8585,-1.8748,-1.8747,-1.8747,-1.8746,-1.8746,0,-1.8874,-1.886,-1.8876,-1.8875,-1.8888,-1.8841,-1.8837,-1.8852,-1.8877,-1.887,-1.888,-1.8904,-1.892,-1.8893,-1.8905,-1.8928,-1.8907,-1.8933,-1.8932,-1.8931,-1.8787,-1.8773,-1.895,-1.895,-1.895,-1.895,-1.895,-1.895,-1.8966,-1.9013,-1.899,-1.9033,-1.902,-1.9046,-1.9048,-1.9048,-1.9042,-1.9071,-1.9084,-1.9066,-1.9052,-1.9062,-1.9076,-1.9067,-1.9075,-1.911,-1.9094,-1.8961,-1.8941,-1.8922,-1.8909,-1.9111,-1.9112,-1.9236,-1.9238,-1.9239]},{"header":{"parameterUnit":"m.s-1","parameterCategory":1,"la1":30.2991,"la2":30.254,"lo1":-89.0895,"lo2":-89.0444,"dy":0.0017,"dx":0.0017,"nx":28,"ny":28,"refTime":"2025-09-09T09:00:00:Z","depth":0,"parameterNumber":3,"parameterNumberName":"V-component_of_WINDS"},"data":[0,0,0,0,0,0,0,0,0,0,0,0,0,0,0,0,0,0,0,0,0,0,0,0,0,0,0,0,0,0,0,0,0,0,0,0,0,0,0,0,0,0,0,0,0,0,0,0,0,0,0,0,0,0,0,0,0,0,2.8506,2.8506,0,2.8481,2.8481,2.848,2.8458,2.8458,2.8458,2.8458,2.8428,2.8427,2.8427,0,0,0,0,0,0,0,0,0,0,0,0,0,2.8532,2.8532,2.8506,2.8506,2.8505,2.8481,2.8481,2.848,2.8459,2.8458,2.8458,2.8458,2.8428,2.8427,2.8427,0,0,0,0,0,0,0,0,0,0,0,0,0,2.8515,2.8532,2.8506,2.8492,2.849,2.8481,2.8481,2.848,2.8459,2.8458,2.8458,2.8458,2.8428,2.8428,2.8427,2.8429,0,0,2.8424,2.8424,0,0,0,0,0,0,0,0,2.8516,2.8514,2.8494,2.8493,2.8491,2.8473,2.8479,2.8463,2.8459,2.847,2.8458,2.8457,2.8443,2.8441,2.8437,2.8427,2.8426,2.8424,2.8424,2.8423,2.8423,0,0,0,0,0,0,0,2.8518,2.8515,2.8496,2.8494,2.8492,2.8486,2.8483,2.8476,2.8459,2.8469,2.8468,2.8465,2.8442,2.8438,2.8436,2.8426,2.8424,2.8423,2.8423,2.8422,2.8418,2.8418,0,0,0,0,0,0,2.8521,2.8517,2.8497,2.8495,2.8503,2.8486,2.8482,2.8479,2.8459,2.8456,2.8466,2.8464,2.8439,2.8437,2.8435,2.8436,2.8423,2.8422,2.8422,2.8417,2.8418,2.8418,0,0,0,0,0,0,2.8522,2.852,2.8498,2.8506,2.8502,2.8485,2.8482,2.8478,2.8474,2.8456,2.8453,2.8465,2.8439,2.8436,2.8431,2.8435,2.8422,2.8421,2.8417,2.8417,2.8418,2.8438,0,0,0,0,0,0,2.8523,2.852,2.8521,2.8506,2.8502,2.8495,2.8482,2.8478,2.8473,2.8471,2.8454,2.8451,2.8438,2.8432,2.843,2.8433,2.8421,2.8416,2.8417,2.8418,2.8437,2.844,2.8442,0,0,0,0,0,2.8524,2.8527,2.8521,2.8519,2.8503,2.8495,2.8493,2.848,2.8474,2.8474,2.8463,2.8451,2.8435,2.8432,2.8429,2.8432,2.8416,2.8417,2.8418,2.8436,2.8439,2.8442,0,0,0,0,0,0,2.8541,2.8524,2.8518,2.8516,2.8508,2.8492,2.8492,2.8483,2.8475,2.8473,2.8456,2.8452,2.8449,2.844,2.8437,2.8434,2.8424,2.8424,2.8439,2.8442,2.8444,2.8445,2.842,0,0,0,0,0,2.8545,2.8542,2.8527,2.8526,2.8523,2.8508,2.8504,2.8495,2.8485,2.8481,2.8469,2.8458,2.8451,2.8446,2.8438,2.8437,2.8432,2.8438,2.844,2.8442,2.8441,2.8441,2.8443,2.8421,2.8421,2.8421,0,0,2.8553,2.8543,2.8541,2.853,2.8522,2.8518,2.8505,2.8501,2.8497,2.8479,2.8474,2.8466,2.8453,2.845,2.8448,2.8442,2.8447,2.8443,2.8444,2.8443,2.8442,2.8444,2.8446,2.8421,2.8421,2.8421,0,0,2.8564,2.8556,2.8556,2.8549,2.8538,2.8529,2.8529,2.8515,2.8509,2.8504,2.8491,2.8486,2.8474,2.8465,2.8459,2.847,2.8459,2.8468,2.8479,2.8478,2.848,2.8481,2.8485,2.8486,2.8469,2.8469,2.8469,0,2.8574,2.8568,2.8556,2.8553,2.8548,2.8535,2.8534,2.8527,2.8514,2.851,2.8505,2.8491,2.8481,2.8476,2.8479,2.8475,2.8474,2.8469,2.8481,2.8482,2.8483,2.8486,2.8487,2.847,2.847,2.847,2.847,0,2.858,2.8577,2.8577,2.8567,2.8562,2.856,2.8548,2.8545,2.8537,2.8528,2.8524,2.8512,2.8502,2.8501,2.8492,2.8495,2.8492,2.8484,2.8474,2.8486,2.8489,2.849,2.8471,2.8471,2.8471,2.847,0,0,2.8599,2.8584,2.8585,2.858,2.8568,2.8564,2.8562,2.8554,2.8552,2.8544,2.8541,2.8532,2.8525,2.8519,2.8509,2.8509,2.8518,2.8501,2.85,2.8504,2.8521,2.8526,2.8527,2.8512,2.8512,2.8512,2.8521,0,2.8608,2.8604,2.8594,2.8593,2.8589,2.8577,2.8575,2.8567,2.856,2.8555,2.8546,2.854,2.8532,2.8528,2.8528,2.8517,2.8521,2.8517,2.8508,2.8508,2.851,2.8529,2.8533,2.8542,2.8522,2.8523,2.8523,0,2.8616,2.8611,2.8609,2.8599,2.8597,2.8596,2.8588,2.8584,2.8575,2.857,2.8564,2.8555,2.8551,2.8543,2.8538,2.8536,2.8532,2.8527,2.8527,2.8524,2.8515,2.8525,2.8545,2.8546,2.8524,2.8524,2.8524,0,2.8629,2.8622,2.862,2.8617,2.8605,2.8604,2.8599,2.859,2.8586,2.8579,2.8577,2.8569,2.8565,2.8559,2.8548,2.8544,2.8544,2.8535,2.8539,2.8539,2.8537,2.8537,2.8556,2.8538,2.8538,2.8538,2.8538,0,2.8639,2.8638,2.8626,2.8625,2.8624,2.8614,2.8613,2.8606,2.8599,2.8596,2.8585,2.8583,2.8569,2.8564,2.8555,2.8552,2.8551,2.8546,2.8543,2.8546,2.8546,2.8541,2.854,2.8538,2.8538,2.8538,2.8538,0,2.8653,2.8644,2.8642,2.8632,2.8629,2.8629,2.862,2.8618,2.8611,2.8608,2.8606,2.8594,2.8589,2.8578,2.8569,2.8563,2.8561,2.8558,2.8565,2.8563,2.8566,2.8566,2.8581,2.8582,2.8565,2.8565,2.8565,0,2.8659,2.8658,2.8649,2.8647,2.8642,2.8639,2.8636,2.8626,2.8623,2.8614,2.8613,2.8607,2.8602,2.8593,2.8584,2.8577,2.8572,2.8578,2.8571,2.8574,2.8571,2.8571,2.857,2.8579,2.8579,2.8579,2.858,0,2.867,2.8666,2.8663,2.8658,2.8655,2.865,2.8645,2.8643,2.8632,2.8629,2.8624,2.862,2.8612,2.8606,2.8599,2.8592,2.8584,2.8583,2.8583,2.8585,2.8588,2.8586,2.8568,2.8582,2.8581,2.8581,2.8581,2.8581,2.8679,2.8679,2.8672,2.8668,2.8664,2.866,2.8658,2.8652,2.8648,2.8641,2.8636,2.8631,2.8624,2.8613,2.8608,2.8603,2.8599,2.86,2.86,2.8599,2.86,2.8591,2.8602,2.8602,2.8602,2.8602,2.8602,0,2.8689,2.8685,2.8682,2.8676,2.8673,2.8668,2.8662,2.866,2.8657,2.8651,2.8647,2.8641,2.8636,2.8627,2.8621,2.8619,2.8615,2.8618,2.8617,2.8616,2.8605,2.8605,2.8621,2.8621,2.8621,2.8621,2.8621,2.8621,2.8694,2.8693,2.8689,2.8685,2.8681,2.8678,2.8675,2.8671,2.8666,2.8661,2.8657,2.8652,2.8645,2.8639,2.8634,2.8631,2.8629,2.8632,2.8629,2.8618,2.8616,2.8614,2.8614,2.8632,2.8632,2.8639,2.8639,2.864]}]]